contact:dominique.lefevre@mio.osupytheas.fr, maurice.libes@osupytheas.fr
Project:EMSO Ligure-ouest http://www.emso-fr.org/EMSO-France
Sensor Aquadopp, line 13 Serial AQD14315 
DOI : "https://doi.org/10.17882/74513; https://doi.org/10.17882/83244" 
Title:EMSO Ligure Ouest : Data ligne ALBATROSS capteur AQUADOPP - deploiement 2021
Id,Date,Profondeur,Latitude,Longitude,X_East,Y_North,Z_Up,Amplitude_X,Amplitude_Y,Amplitude_Z,Batterie,SoundSpeed,Heading,Pitch,Roll,Pressure,Temperature,Speed,Direction
, , m, degrees North, degrees East, m.s-1, m.s-1,m.s-1, 1, 1, 1, Volt, m.s-1, degree, degree, degree, dbar, degree_C, m.s-1, degree
09,2022-06-30T23:30:00,2000.0,42.79,6.0312,-0.008,-0.014,0.013,78.0,72.0,76.0,13.4,1504.7,142.9,-0.8,1.0,1992.739,13.28,0.016,209.7
09,2022-07-01T00:00:00,2000.0,42.79,6.0312,0.005,-0.028,-0.008,77.0,73.0,73.0,13.4,1504.7,145.0,-0.9,1.0,1992.732,13.28,0.028,169.9
09,2022-07-01T00:30:00,2000.0,42.79,6.0312,0.013,-0.015,0.025,77.0,74.0,74.0,13.4,1504.7,144.8,-0.7,1.0,1992.73,13.28,0.019,139.1
09,2022-07-01T01:00:00,2000.0,42.79,6.0312,0.012,-0.041,0.0,75.0,73.0,75.0,13.4,1504.7,143.4,-0.9,1.0,1992.704,13.28,0.042,163.7
09,2022-07-01T02:00:00,2000.0,42.79,6.0312,0.0,-0.031,0.007,73.0,69.0,71.0,13.4,1504.7,136.1,-0.6,0.9,1992.663,13.28,0.03,180.0
09,2022-07-01T02:30:00,2000.0,42.79,6.0312,-0.005,-0.041,-0.017,70.0,67.0,64.0,13.4,1504.7,135.5,-0.7,1.0,1992.675,13.28,0.041,187.0
09,2022-07-01T03:00:00,2000.0,42.79,6.0312,-0.005,-0.027,-0.011,71.0,64.0,68.0,13.4,1504.7,135.5,-0.7,1.0,1992.621,13.28,0.027,190.5
09,2022-07-01T03:30:00,2000.0,42.79,6.0312,0.0,-0.032,0.002,67.0,67.0,70.0,13.4,1504.7,134.7,-0.8,1.1,1992.649,13.28,0.032,180.0
09,2022-07-01T04:00:00,2000.0,42.79,6.0312,-0.02,-0.019,-0.011,69.0,68.0,66.0,13.4,1504.7,140.4,-0.9,1.0,1992.681,13.29,0.027,226.5
09,2022-07-01T04:30:00,2000.0,42.79,6.0312,-0.006,-0.022,-0.005,65.0,65.0,66.0,13.4,1504.7,137.3,-0.7,1.0,1992.669,13.29,0.022,195.3
09,2022-07-01T05:00:00,2000.0,42.79,6.0312,-0.004,-0.019,-0.024,69.0,66.0,68.0,13.4,1504.7,137.2,-0.8,1.0,1992.649,13.29,0.019,191.9
09,2022-07-01T05:30:00,2000.0,42.79,6.0312,-0.015,-0.039,-0.02,71.0,65.0,68.0,13.4,1504.7,140.7,-0.7,1.0,1992.655,13.29,0.041,201.0
09,2022-07-01T06:00:00,2000.0,42.79,6.0312,-0.003,-0.039,-0.012,68.0,67.0,66.0,13.4,1504.7,138.0,-0.6,1.0,1992.652,13.29,0.039,184.4
09,2022-07-01T06:30:00,2000.0,42.79,6.0312,-0.006,-0.025,-0.026,70.0,63.0,65.0,13.4,1504.7,134.9,-0.8,1.0,1992.707,13.29,0.025,193.5
09,2022-07-01T07:00:00,2000.0,42.79,6.0312,-0.012,-0.034,-0.007,65.0,64.0,65.0,13.4,1504.7,138.2,-0.8,0.9,1992.714,13.29,0.036,199.4
09,2022-07-01T07:30:00,2000.0,42.79,6.0312,-0.011,-0.035,-0.011,65.0,65.0,67.0,13.4,1504.7,135.9,-0.8,1.0,1992.763,13.28,0.036,197.4
09,2022-07-01T08:00:00,2000.0,42.79,6.0312,-0.017,-0.016,0.009,72.0,71.0,71.0,13.4,1504.7,143.2,-0.8,1.0,1992.714,13.29,0.023,226.7
09,2022-07-01T08:30:00,2000.0,42.79,6.0312,-0.029,-0.022,0.009,74.0,73.0,74.0,13.4,1504.7,142.5,-0.5,1.0,1992.736,13.28,0.036,232.8
09,2022-07-01T09:00:00,2000.0,42.79,6.0312,-0.014,-0.029,-0.039,75.0,73.0,76.0,13.4,1504.7,149.8,-0.8,1.0,1992.726,13.29,0.032,205.8
09,2022-07-01T09:30:00,2000.0,42.79,6.0312,-0.031,-0.02,0.007,79.0,74.0,79.0,13.4,1504.7,144.1,-0.6,1.0,1992.701,13.29,0.036,237.2
09,2022-07-01T10:00:00,2000.0,42.79,6.0312,-0.01,-0.034,-0.018,76.0,76.0,78.0,13.4,1504.7,149.0,-0.7,1.0,1992.688,13.29,0.035,196.4
09,2022-07-01T10:30:00,2000.0,42.79,6.0312,-0.03,-0.023,-0.008,78.0,75.0,80.0,13.4,1504.7,147.4,-0.6,1.0,1992.671,13.29,0.037,232.5
09,2022-07-01T11:00:00,2000.0,42.79,6.0312,-0.005,-0.017,0.005,78.0,74.0,73.0,13.4,1504.7,150.5,-0.8,1.0,1992.639,13.28,0.017,196.4
09,2022-07-01T11:30:00,2000.0,42.79,6.0312,-0.006,-0.02,-0.004,77.0,73.0,76.0,13.4,1504.7,153.8,-0.8,1.0,1992.622,13.28,0.02,196.7
09,2022-07-01T12:00:00,2000.0,42.79,6.0312,0.003,-0.029,-0.011,79.0,74.0,79.0,13.4,1504.7,151.6,-0.8,1.0,1992.653,13.29,0.029,174.1
09,2022-07-01T12:30:00,2000.0,42.79,6.0312,-0.026,-0.025,-0.018,73.0,70.0,73.0,13.4,1504.7,154.2,-0.7,1.0,1992.608,13.28,0.036,226.1
09,2022-07-01T13:00:00,2000.0,42.79,6.0312,-0.026,-0.041,0.01,77.0,74.0,76.0,13.4,1504.7,152.6,-0.8,0.9,1992.598,13.28,0.048,212.4
09,2022-07-01T13:30:00,2000.0,42.79,6.0312,0.002,-0.024,0.002,75.0,70.0,71.0,13.4,1504.7,154.8,-0.8,1.0,1992.585,13.28,0.024,175.2
09,2022-07-01T14:00:00,2000.0,42.79,6.0312,-0.024,-0.021,0.019,78.0,71.0,79.0,13.4,1504.7,156.0,-0.8,1.0,1992.605,13.28,0.031,228.8
09,2022-07-01T15:00:00,2000.0,42.79,6.0312,-0.014,-0.021,0.013,76.0,72.0,73.0,13.4,1504.7,158.8,-0.8,1.1,1992.59,13.28,0.025,213.7
09,2022-07-01T15:30:00,2000.0,42.79,6.0312,-0.018,-0.008,-0.023,76.0,71.0,75.0,13.4,1504.7,158.2,-0.7,1.0,1992.584,13.28,0.019,246.0
09,2022-07-01T16:00:00,2000.0,42.79,6.0312,-0.007,0.006,0.03,78.0,72.0,74.0,13.4,1504.7,158.0,-0.8,1.0,1992.636,13.28,0.009,310.6
09,2022-07-01T16:30:00,2000.0,42.79,6.0312,0.005,-0.004,-0.011,79.0,74.0,76.0,13.4,1504.7,153.3,-0.8,0.9,1992.571,13.28,0.006,128.7
09,2022-07-01T17:00:00,2000.0,42.79,6.0312,-0.026,-0.025,-0.005,78.0,71.0,75.0,13.4,1504.7,154.4,-0.8,1.0,1992.607,13.28,0.036,226.1
09,2022-07-01T17:30:00,2000.0,42.79,6.0312,0.014,0.0,-0.008,78.0,72.0,75.0,13.4,1504.7,151.1,-0.7,1.0,1992.672,13.28,0.014,90.0
09,2022-07-01T18:00:00,2000.0,42.79,6.0312,-0.003,-0.032,0.002,76.0,76.0,74.0,13.4,1504.7,147.3,-0.8,1.0,1992.6,13.28,0.032,185.4
09,2022-07-01T18:30:00,2000.0,42.79,6.0312,0.025,-0.028,0.01,79.0,72.0,75.0,13.4,1504.7,149.0,-0.6,1.0,1992.697,13.28,0.037,138.2
09,2022-07-01T19:00:00,2000.0,42.79,6.0312,-0.004,-0.025,-0.01,74.0,72.0,77.0,13.4,1504.7,147.4,-0.8,1.0,1992.75,13.28,0.025,189.1
09,2022-07-01T19:30:00,2000.0,42.79,6.0312,0.005,-0.027,0.0,77.0,74.0,75.0,13.4,1504.7,138.8,-0.6,1.0,1992.753,13.28,0.027,169.5
09,2022-07-01T20:00:00,2000.0,42.79,6.0312,0.005,-0.047,0.002,73.0,70.0,75.0,13.4,1504.7,149.1,-0.9,1.0,1992.791,13.28,0.047,173.9
09,2022-07-01T20:30:00,2000.0,42.79,6.0312,-0.006,-0.053,0.02,74.0,73.0,78.0,13.4,1504.7,143.9,-0.7,1.0,1992.818,13.28,0.053,186.5
09,2022-07-01T21:00:00,2000.0,42.79,6.0312,-0.009,-0.064,0.005,77.0,70.0,76.0,13.4,1504.7,146.9,-1.0,1.0,1992.873,13.28,0.064,188.0
09,2022-07-01T21:30:00,2000.0,42.79,6.0312,-0.016,-0.046,-0.015,74.0,71.0,77.0,13.4,1504.7,152.9,-0.5,1.0,1992.811,13.28,0.048,199.2
09,2022-07-01T22:00:00,2000.0,42.79,6.0312,-0.018,-0.045,-0.011,75.0,73.0,71.0,13.4,1504.7,152.2,-0.8,1.1,1992.818,13.28,0.048,201.8
09,2022-07-01T22:30:00,2000.0,42.79,6.0312,-0.008,-0.02,-0.013,74.0,72.0,73.0,13.4,1504.7,154.3,-1.1,1.0,1992.782,13.28,0.021,201.8
09,2022-07-01T23:00:00,2000.0,42.79,6.0312,-0.019,-0.037,-0.03,75.0,70.0,73.0,13.4,1504.7,153.5,-1.0,1.0,1992.807,13.28,0.041,207.2
